{"data":{"norad_id":58717,"intl_designator":"2024-002N","name":"STARLINK-31093","alt_names":[],"object_type":"PAYLOAD","status":"ACTIVE","operator":null,"country":"US","launch_date":"2024-01-03","launch_site_code":"AFWTR","launch_vehicle":null,"mission":null,"orbit_class":"UNKNOWN","rcs_meters":null,"size_class":null,"mass_kg":null,"dimensions":null,"purposes":["comms"],"wikipedia_slug":null,"has_3d_model":false,"image_url":null,"decayed_at":null,"tle_current":{"epoch":"2026-05-24T23:15:51.928992Z","epoch_age_seconds":77161,"freshness":"FRESH","line1":"1 58717U 24002N   26144.96935103 -.00002407  00000+0 -69169-4 0  9998","line2":"2 58717  53.1604 235.6676 0001097  94.0999 266.0127 15.30202023133695","mean_motion":15.30202023,"eccentricity":0.0001097,"inclination_deg":53.1604,"raan_deg":235.6676,"arg_perigee_deg":94.0999,"mean_anomaly_deg":266.0127,"bstar":-6.9169e-5,"rev_number":13369,"period_min":94.105221294692,"perigee_km":474.45721705323,"apogee_km":475.96084117202,"semimajor_km":6853.3460291126,"source":"CELESTRAK","updated_at":"2026-05-25T13:38:18.717213Z"}}}